Regional Weather Roundup
Issued by NWS Cleveland, OH

Home | Current Version | Previous Version | Graphics & Text | Print | Product List | Glossary On
Versions: 1 2 3 4 5 6 7 8 9 10 11 12 13 14 15 16 17 18 19 20 21 22 23 24 25 26 27 28 29 30 31 32 33 34 35 36 37 38 39 40 41 42 43 44 45 46 47 48 49 50
000
ASUS41 KCLE 310800
RWRCLE
OHIO REGIONAL WEATHER ROUNDUP
NATIONAL WEATHER SERVICE WILMINGTON, OH
400 AM EDT WED AUG 31 2016

NOTE: "FAIR" INDICATES FEW OR NO CLOUDS BELOW 12,000 FEET WITH NO
SIGNIFICANT WEATHER AND/OR OBSTRUCTIONS TO VISIBILITY.

OHZ001>008-015>018-024>027-034-035-043-044-310900-
   NORTHWEST OHIO

CITY           SKY/WX    TMP DP  RH WIND       PRES   REMARKS
DEFIANCE       FAIR      69  67  93 S3        30.01F FOG
FINDLAY        FAIR      71  66  84 NW5       30.02S
TOLEDO EXPRESS FAIR      68  68 100 S3        30.01S
TOLEDO EXEC    FAIR      71  70  96 S3        30.02S
LIMA           FOG       68  68 100 S6        30.03S VSB 3/4
$$

OHZ009>014-019>023-028>033-038-089-310900-
   NORTHEAST OHIO

CITY           SKY/WX    TMP DP  RH WIND       PRES   REMARKS
CLE-HOPKINS    CLOUDY    73  63  70 CALM      30.03F
CLE-LAKEFRONT  MOCLDY    76  64  66 S3        29.99F
CUY CO. ARPT   NOT AVBL
LORAIN-ELYRIA  FAIR      69  64  84 CALM      30.01F
ASHTABULA      FAIR      67  64  90 CALM      30.03F
AKRON-CANTON   CLOUDY    70  60  70 CALM      30.03F
WOOSTER        NOT AVBL
MANSFIELD      FAIR      71  66  84 CALM      30.04F
YOUNGSTOWN     CLOUDY    69  57  65 CALM      30.04F
$$

OHZ042-051>053-060>062-070>072-077>081-310900-
  SOUTHWEST OHIO

CITY           SKY/WX    TMP DP  RH WIND       PRES   REMARKS
CINC-COVINGTON MOCLDY    68  68 100 S3        30.03F
CINC-LUNKEN    FAIR      69  69 100 CALM      30.02F
HAMILTON       FAIR      71  68  90 NW3       30.03S
DAYTON         NOT AVBL
WRIGHT-PAT AFB MOCLDY    72  70  95 CALM      30.02S
DAYTON GENERAL FAIR      72  68  87 CALM      30.03R
WILMINGTON     FAIR      68  68 100 CALM      30.03F FOG
$$

OHZ036-037-039>041-045>050-054>059-063>069-073>076-082>088-310900-
  CENTRAL AND SOUTHEAST OHIO

CITY           SKY/WX    TMP DP  RH WIND       PRES   REMARKS
COLUMBUS       CLOUDY    71  65  81 CALM      30.02S
OSU AIRPORT    FAIR      71  67  87 CALM      30.02F
BOLTON FIELD   NOT AVBL
RICKENBACK AFB NOT AVBL
NEWARK         FAIR      66  65  96 CALM      30.03S
MARION         FAIR      71  68  90 S3        30.03F
LANCASTER      FAIR      66  64  93 CALM      30.03F
ZANESVILLE     FAIR      63  62  97 CALM      30.03F
NEW PHILLY     FAIR      66  61  84 SE5       30.03F
$$




USA.gov is the U.S. government's official web portal to all federal, state and local government web resources and services.